Weather History for Missoula, MT

Change the Weather History Date:

Monday, March 4, 2013

  Actual Average Record
Temperature  
Mean Temperature 28 °F 35 °F  
Max Temperature 39 °F 45 °F 65 °F (1968)
Min Temperature 16 °F 25 °F -9 °F (1989)
Degree Days  
Heating Degree Days 37 30  
Month to date heating degree days 112 122  
Since 1 July heating degree days 5103 5491  
Cooling Degree Days 0 0  
Month to date cooling degree days 0 0  
Year to date cooling degree days 0 0  
Moisture  
Dew Point 16 °F    
Average Humidity 60    
Maximum Humidity 85    
Minimum Humidity 35    
Precipitation  
Precipitation 0.00 in 0.03 in 0.53 in (1944)
Month to date precipitation 0.07 0.11  
Year to date precipitation 1.53 1.66  
Snow  
Snow 0.00 in - - ()
Month to date snowfall 1.6  
Year to date snowfall 17.2  
Since 1 July snowfall 38.3  
Snow Depth 2.00 in    
Sea Level Pressure  
Sea Level Pressure 30.30 in    
Wind  
Wind Speed 5 mph (ENE)    
Max Wind Speed 13 mph    
Max Gust Speed -    
Visibility 10 miles    
Events      
T = Trace of Precipitation, MM = Missing Value Source: NWS Daily Summary

Daily Weather History Graph

Daily Weather History Graph

Search for Another Location

Airport:

Trip Planner

Search our weather history database for the weather conditions in past years. The results will help you decide how hot, cold, wet, or windy it might be!

Date:

Astronomy

Mar. 04, 2013 Rise Set
Actual Time 7:09 AM MST 6:26 PM MST
Civil Twilight 6:39 AM MST 6:57 PM MST
Nautical Twilight 6:04 AM MST 7:32 PM MST
Astronomical Twilight 5:29 AM MST 8:07 PM MST
Moon 1:39 AM MST (3/4) 10:55 AM MST (3/4)
Length of Visible Light 12h 17m
Length of Day
11h 16m
Waning Gibbous, 51% of the Moon is Illuminated
Mar 4
Waning Gibbous
Mar 4
Last Quarter
Mar 11
New
Mar 19
First Quarter
Mar 27
Full

Hourly Weather History & Observations

Time (MST) Temp. Windchill Dew Point Humidity Pressure Visibility Wind Dir Wind Speed Gust Speed Precip Events Conditions
12:53 AM 28.0 °F 21.7 °F 24.1 °F 85% 30.21 in 10.0 mi NW 5.8 mph - N/A   Overcast
1:53 AM 28.9 °F 19.2 °F 21.0 °F 72% 30.23 in 10.0 mi NNW 11.5 mph - N/A   Overcast
2:53 AM 28.0 °F 20.0 °F 19.0 °F 69% 30.25 in 10.0 mi NNW 8.1 mph - N/A   Overcast
3:53 AM 26.1 °F 20.5 °F 19.0 °F 75% 30.28 in 10.0 mi North 4.6 mph - N/A   Overcast
4:45 AM 21.2 °F 16.4 °F 17.6 °F 86% 30.21 in 10.0 mi NE 3.5 mph - N/A   Scattered Clouds
4:53 AM 21.0 °F - 16.0 °F 81% 30.31 in 10.0 mi Calm Calm - N/A   Scattered Clouds
5:08 AM 19.4 °F - 15.8 °F 86% 30.21 in 10.0 mi Calm Calm - N/A   Mostly Cloudy
5:53 AM 19.0 °F - 15.1 °F 85% 30.34 in 10.0 mi Calm Calm - N/A   Mostly Cloudy
6:37 AM 19.4 °F 14.3 °F 15.8 °F 86% 30.23 in 10.0 mi NE 3.5 mph - N/A   Scattered Clouds
6:53 AM 17.1 °F - 14.0 °F 88% 30.36 in 10.0 mi Calm Calm - N/A   Clear
7:08 AM 17.6 °F - 15.8 °F 93% 30.24 in 10.0 mi Calm Calm - N/A   Partly Cloudy
7:53 AM 17.1 °F - 14.0 °F 88% 30.38 in 10.0 mi Calm Calm - N/A   Clear
8:53 AM 23.0 °F - 17.1 °F 78% 30.38 in 10.0 mi Calm Calm - N/A   Clear
9:53 AM 27.0 °F - 19.0 °F 72% 30.39 in 10.0 mi Calm Calm - N/A   Clear
10:53 AM 28.9 °F - 21.0 °F 72% 30.40 in 10.0 mi Calm Calm - N/A   Clear
11:53 AM 32.0 °F 28.7 °F 19.0 °F 59% 30.38 in 10.0 mi Variable 3.5 mph - N/A   Clear
12:53 PM 35.1 °F 31.0 °F 15.1 °F 44% 30.37 in 10.0 mi ESE 4.6 mph - N/A   Clear
1:53 PM 37.0 °F 32.4 °F 16.0 °F 42% 30.34 in 10.0 mi SSE 5.8 mph - N/A   Overcast
2:53 PM 37.0 °F 32.4 °F 12.9 °F 37% 30.31 in 10.0 mi Variable 5.8 mph - N/A   Clear
3:53 PM 37.0 °F - 12.9 °F 37% 30.30 in 10.0 mi Calm Calm - N/A   Clear
4:53 PM 37.0 °F 32.4 °F 12.0 °F 36% 30.30 in 10.0 mi ESE 5.8 mph - N/A   Clear
5:53 PM 36.0 °F 28.5 °F 15.1 °F 43% 30.29 in 10.0 mi ESE 10.4 mph - N/A   Clear
6:53 PM 34.0 °F 26.6 °F 14.0 °F 44% 30.30 in 10.0 mi East 9.2 mph - N/A   Scattered Clouds
7:53 PM 32.0 °F 22.5 °F 14.0 °F 48% 30.30 in 10.0 mi East 12.7 mph - N/A   Clear
8:53 PM 30.9 °F 21.7 °F 12.9 °F 47% 30.27 in 10.0 mi East 11.5 mph - N/A   Clear
9:53 PM 28.9 °F 21.9 °F 12.9 °F 51% 30.27 in 10.0 mi East 6.9 mph - N/A   Clear
10:53 PM 28.0 °F 21.7 °F 12.0 °F 51% 30.26 in 10.0 mi ESE 5.8 mph - N/A   Clear